,,PA_Meas_PMT16A,,PR_Meas_QMR101_102,,RH_Meas_QMH101,,SR_Meas_QMS101,,TA_Meas_QMH101,,GenWind,,GenWind,
time,status,PA,status,PR,status,RH,status,SR,status,TA,status,DirAvg,status,SpdAvg,
2016-05-20, 07:14:04,VALID,917.192,VALID,0,INVALID,112.087,VALID,105.292,VALID,21.2632,VALID,105,VALID,0,
2016-05-20, 07:15:04,VALID,917.197,VALID,0,INVALID,112.057,VALID,126.888,VALID,21.3429,VALID,105,VALID,0,
2016-05-20, 07:16:04,VALID,917.188,VALID,0,INVALID,112.064,VALID,105.615,VALID,21.3803,VALID,105,VALID,0,
2016-05-20, 07:17:04,VALID,917.185,VALID,0,INVALID,112.133,VALID,90.4654,VALID,21.4209,VALID,106,VALID,0,
2016-05-20, 07:18:04,VALID,917.186,VALID,0,INVALID,112.217,VALID,114.962,VALID,21.4388,VALID,106,VALID,0,
2016-05-20, 07:19:04,VALID,917.223,VALID,0,INVALID,112.301,VALID,101.317,VALID,21.4388,VALID,125,VALID,0,
2016-05-20, 07:20:04,VALID,917.211,VALID,0,INVALID,112.407,VALID,91.8622,VALID,21.4388,VALID,125,VALID,0,
2016-05-20, 07:21:04,VALID,917.228,VALID,0,INVALID,112.468,VALID,74.1344,VALID,21.5168,VALID,125,VALID,0,
2016-05-20, 07:23:04,VALID,917.256,VALID,0,INVALID,112.552,VALID,114.317,VALID,21.6534,VALID,124,VALID,0,
2016-05-20, 07:24:04,VALID,917.273,VALID,0,INVALID,112.651,VALID,114.747,VALID,21.7315,VALID,124,VALID,0,
2016-05-20, 07:25:04,VALID,917.269,VALID,0,INVALID,112.743,VALID,178.137,VALID,21.8095,VALID,125,VALID,0,
2016-05-20, 07:26:04,VALID,917.3,VALID,0,INVALID,112.91,VALID,133.442,VALID,21.8876,VALID,125,VALID,0,
2016-05-20, 07:27:04,VALID,917.3,VALID,0,INVALID,113.055,VALID,212.733,VALID,21.9851,VALID,125,VALID,0,
2016-05-20, 07:28:04,VALID,917.314,VALID,0,INVALID,113.215,VALID,221.544,VALID,22.0437,VALID,125,VALID,0,
2016-05-20, 07:29:04,VALID,917.357,VALID,0,INVALID,113.337,VALID,226.701,VALID,22.1413,VALID,125,VALID,0,
2016-05-20, 07:30:04,VALID,917.325,VALID,0,INVALID,113.383,VALID,223.155,VALID,22.2388,VALID,126,VALID,0,
2016-05-20, 07:31:04,VALID,917.358,VALID,0,INVALID,113.322,VALID,198.121,VALID,22.3169,VALID,167,VALID,0,
2016-05-20, 07:32:04,VALID,917.388,VALID,0,INVALID,113.093,VALID,196.51,VALID,22.4145,VALID,185,VALID,0,
2016-05-20, 07:33:04,VALID,917.412,VALID,0,INVALID,112.506,VALID,164.922,VALID,22.473,VALID,207,VALID,0,
2016-05-20, 07:34:04,VALID,917.403,VALID,0,INVALID,111.828,VALID,277.735,VALID,22.5299,VALID,217,VALID,0,
2016-05-20, 07:35:04,VALID,917.428,VALID,0,INVALID,111.058,VALID,265.702,VALID,22.5494,VALID,245,VALID,0,
2016-05-20, 07:36:04,VALID,917.415,VALID,0,INVALID,111.454,VALID,201.13,VALID,22.6079,VALID,213,VALID,0,
2016-05-20, 07:37:04,VALID,917.397,VALID,0,INVALID,111.653,VALID,273.545,VALID,22.686,VALID,184,VALID,0,
2016-05-20, 07:38:04,VALID,917.414,VALID,0,INVALID,111.294,VALID,262.264,VALID,22.8048,VALID,189,VALID,0,
2016-05-20, 07:39:04,VALID,917.401,VALID,0,INVALID,110.257,VALID,226.808,VALID,22.8209,VALID,194,VALID,0,
2016-05-20, 07:40:04,VALID,917.423,VALID,0,INVALID,110.158,VALID,195.221,VALID,22.9592,VALID,187,VALID,0,
2016-05-20, 07:41:04,VALID,917.44,VALID,0,INVALID,109.251,VALID,202.634,VALID,23,VALID,181,VALID,0.00351562,
2016-05-20, 07:42:04,VALID,917.462,VALID,0,INVALID,109.312,VALID,190.923,VALID,23,VALID,184,VALID,0,
2016-05-20, 07:43:04,VALID,917.456,VALID,0,INVALID,109.045,VALID,197.369,VALID,23.0391,VALID,181,VALID,0,
2016-05-20, 07:44:04,VALID,917.47,VALID,0,INVALID,109.061,VALID,179.104,VALID,23.0976,VALID,181,VALID,0,
2016-05-20, 07:45:04,VALID,917.463,VALID,0,INVALID,109.114,VALID,163.203,VALID,23.0195,VALID,126,VALID,0.0277344,
2016-05-20, 07:46:04,VALID,917.45,VALID,0,VALID,104,VALID,137.954,VALID,22.8421,VALID,137,VALID,0,
2016-05-20, 07:47:04,VALID,917.48,VALID,0,INVALID,109.853,VALID,145.905,VALID,22.8243,VALID,137,VALID,0,
2016-05-20, 07:48:04,VALID,917.452,VALID,0,INVALID,110.181,VALID,137.202,VALID,22.7836,VALID,132,VALID,0,
2016-05-20, 07:49:04,VALID,917.482,VALID,0,INVALID,110.456,VALID,122.161,VALID,22.7836,VALID,99,VALID,0,
2016-05-20, 07:50:04,VALID,917.486,VALID,0,INVALID,110.212,VALID,119.904,VALID,22.725,VALID,94,VALID,0,
2016-05-20, 07:51:04,VALID,917.509,VALID,0,INVALID,110.669,VALID,133.872,VALID,22.647,VALID,108,VALID,0,
2016-05-20, 07:52:04,VALID,917.499,VALID,0,INVALID,111.043,VALID,150.955,VALID,22.6274,VALID,87,VALID,0,
2016-05-20, 07:53:04,VALID,917.502,VALID,0,INVALID,110.776,VALID,208.651,VALID,22.6079,VALID,81,VALID,0,
2016-05-20, 07:54:04,VALID,917.518,VALID,0,INVALID,110.913,VALID,225.734,VALID,22.6665,VALID,81,VALID,0,
2016-05-20, 07:55:04,VALID,917.538,VALID,0,INVALID,110.921,VALID,397.64,VALID,22.8226,VALID,92,VALID,0,
2016-05-20, 07:56:04,VALID,917.551,VALID,0,INVALID,110.692,VALID,392.912,VALID,22.9983,VALID,124,VALID,0,
2016-05-20, 07:57:04,VALID,917.56,VALID,0,INVALID,110.006,VALID,298.257,VALID,23.213,VALID,44,VALID,0,
2016-05-20, 07:58:04,VALID,917.59,VALID,0,INVALID,109.144,VALID,275.694,VALID,23.4277,VALID,347,VALID,0,
2016-05-20, 07:59:04,VALID,917.592,VALID,0,VALID,104,VALID,299.868,VALID,23.662,VALID,6,VALID,0,
2016-05-20, 08:00:04,VALID,917.606,VALID,0,VALID,104,VALID,345.101,VALID,23.8554,VALID,29,VALID,0,
2016-05-20, 08:01:04,VALID,917.599,VALID,0,VALID,104,VALID,322.968,VALID,24.1092,VALID,28,VALID,0,
2016-05-20, 08:02:04,VALID,917.609,VALID,0,VALID,104,VALID,317.596,VALID,24.2068,VALID,28,VALID,0,
2016-05-20, 08:03:04,VALID,917.59,VALID,0,VALID,102.337,VALID,314.588,VALID,24.2654,VALID,29,VALID,0,
2016-05-20, 08:04:04,VALID,917.621,VALID,0,VALID,96.3142,VALID,310.827,VALID,24.3044,VALID,29,VALID,0,
2016-05-20, 08:05:04,VALID,917.636,VALID,0,VALID,90.1316,VALID,322.109,VALID,24.3825,VALID,40,VALID,0,
2016-05-20, 08:06:04,VALID,917.599,VALID,0,VALID,90.1088,VALID,328.555,VALID,24.4216,VALID,21,VALID,0,
2016-05-20, 08:07:04,VALID,917.632,VALID,0,VALID,86.7316,VALID,326.729,VALID,24.521,VALID,19,VALID,0,
2016-05-20, 08:08:04,VALID,917.626,VALID,0,VALID,82.7064,VALID,323.505,VALID,24.6754,VALID,19,VALID,0,
2016-05-20, 08:09:04,VALID,917.607,VALID,0,VALID,83.2172,VALID,325.332,VALID,24.654,VALID,59,VALID,0,
2016-05-20, 08:10:04,VALID,917.612,VALID,0,VALID,81.2885,VALID,328.018,VALID,24.6559,VALID,219,VALID,0,
2016-05-20, 08:11:04,VALID,917.608,VALID,0,VALID,83.9033,VALID,329.415,VALID,24.5368,VALID,191,VALID,0,
2016-05-20, 08:12:04,VALID,917.591,VALID,0,VALID,86.2742,VALID,331.886,VALID,24.5387,VALID,164,VALID,0.162891,
2016-05-20, 08:13:04,VALID,917.569,VALID,0,VALID,84.1701,VALID,335.861,VALID,24.5582,VALID,177,VALID,0,
2016-05-20, 08:14:04,VALID,917.574,VALID,0,VALID,83.3239,VALID,340.374,VALID,24.5973,VALID,178,VALID,0,
2016-05-20, 08:15:04,VALID,917.59,VALID,0,VALID,81.9136,VALID,343.704,VALID,24.5973,VALID,246,VALID,0,
2016-05-20, 08:16:04,VALID,917.607,VALID,0,VALID,85.9159,VALID,345.853,VALID,24.5192,VALID,201,VALID,0,
2016-05-20, 08:17:04,VALID,917.548,VALID,0,VALID,81.9517,VALID,347.035,VALID,24.5778,VALID,186,VALID,0,
2016-05-20, 08:18:04,VALID,917.597,VALID,0,VALID,80.5643,VALID,348.861,VALID,24.6168,VALID,186,VALID,0,
2016-05-20, 08:19:04,VALID,917.545,VALID,0,VALID,79.4817,VALID,351.547,VALID,24.6363,VALID,200,VALID,0,
2016-05-20, 08:20:04,VALID,917.544,VALID,0,VALID,79.6876,VALID,354.771,VALID,24.5387,VALID,247,VALID,0,
2016-05-20, 08:21:04,VALID,917.574,VALID,0,VALID,81.5705,VALID,357.779,VALID,24.2049,VALID,248,VALID,0,
2016-05-20, 08:22:04,VALID,917.569,VALID,0,VALID,82.3634,VALID,360.787,VALID,23.992,VALID,248,VALID,0,
2016-05-20, 08:23:04,VALID,917.543,VALID,0,VALID,91.6411,VALID,362.829,VALID,23.8926,VALID,234,VALID,0,
2016-05-20, 08:24:04,VALID,917.589,VALID,0,VALID,95.2698,VALID,367.879,VALID,23.8944,VALID,246,VALID,0,
2016-05-20, 08:25:04,VALID,917.583,VALID,0,VALID,92.6169,VALID,375.829,VALID,23.834,VALID,246,VALID,0,
2016-05-20, 08:26:04,VALID,917.588,VALID,0,VALID,90.3985,VALID,390.119,VALID,23.8731,VALID,246,VALID,0,
2016-05-20, 08:27:04,VALID,917.601,VALID,0,VALID,81.136,VALID,395.598,VALID,23.9707,VALID,246,VALID,0,
2016-05-20, 08:28:04,VALID,917.608,VALID,0,VALID,79.5046,VALID,404.301,VALID,24.1073,VALID,246,VALID,0,
2016-05-20, 08:29:04,VALID,917.609,VALID,0,VALID,80.2669,VALID,409.458,VALID,24.283,VALID,246,VALID,0,
2016-05-20, 08:30:04,VALID,917.611,VALID,0,VALID,80.8844,VALID,413.326,VALID,24.4978,VALID,228,VALID,0,
2016-05-20, 08:31:04,VALID,917.613,VALID,0,VALID,79.0701,VALID,412.359,VALID,24.7711,VALID,228,VALID,0,
2016-05-20, 08:32:04,VALID,917.593,VALID,0,VALID,78.2467,VALID,420.417,VALID,24.9274,VALID,227,VALID,0,
2016-05-20, 08:33:04,VALID,917.606,VALID,0,VALID,77.9342,VALID,433.203,VALID,25.1831,VALID,232,VALID,0,
2016-05-20, 08:34:04,VALID,917.638,VALID,0,VALID,78.0485,VALID,442.228,VALID,25.4565,VALID,32,VALID,0,
2016-05-20, 08:35:04,VALID,917.643,VALID,0,VALID,77.1566,VALID,455.121,VALID,25.6323,VALID,48,VALID,0,
2016-05-20, 08:36:04,VALID,917.644,VALID,0,VALID,77.2176,VALID,463.823,VALID,25.7866,VALID,32,VALID,0,
2016-05-20, 08:37:04,VALID,917.666,VALID,0,VALID,76.2799,VALID,464.038,VALID,25.982,VALID,38,VALID,0,
2016-05-20, 08:38:04,VALID,917.686,VALID,0,VALID,73.5736,VALID,455.765,VALID,26.1578,VALID,48,VALID,0,
2016-05-20, 08:39:04,VALID,917.687,VALID,0,VALID,74.9382,VALID,458.881,VALID,26.0796,VALID,45,VALID,0,
2016-05-20, 08:40:04,VALID,917.674,VALID,0,VALID,73.97,VALID,454.369,VALID,26.1558,VALID,38,VALID,0,
2016-05-20, 08:41:04,VALID,917.681,VALID,0,VALID,71.4009,VALID,466.724,VALID,26.0992,VALID,326,VALID,0,
2016-05-20, 08:42:04,VALID,917.712,VALID,0,VALID,73.848,VALID,457.377,VALID,26.0015,VALID,332,VALID,0,
2016-05-20, 08:43:04,VALID,917.716,VALID,0,VALID,72.8951,VALID,456.732,VALID,25.9995,VALID,320,VALID,0,
2016-05-20, 08:44:04,VALID,917.709,VALID,0,VALID,73.5278,VALID,426.219,VALID,25.8257,VALID,320,VALID,0,
2016-05-20, 08:45:04,VALID,917.733,VALID,0,VALID,74.6485,VALID,460.063,VALID,25.7847,VALID,321,VALID,0,
2016-05-20, 08:46:04,VALID,917.712,VALID,0,VALID,75.1059,VALID,459.741,VALID,26.0601,VALID,321,VALID,0,
2016-05-20, 08:47:04,VALID,917.714,VALID,0,VALID,73.6574,VALID,463.286,VALID,26.3336,VALID,31,VALID,0,
2016-05-20, 08:48:04,VALID,917.739,VALID,0,VALID,71.157,VALID,461.352,VALID,26.5464,VALID,31,VALID,0,
2016-05-20, 08:49:04,VALID,917.729,VALID,0,VALID,71.0884,VALID,420.525,VALID,26.7027,VALID,19,VALID,0,
2016-05-20, 08:50:04,VALID,917.731,VALID,0,VALID,71.4619,VALID,455.013,VALID,26.6636,VALID,314,VALID,0,
2016-05-20, 08:51:04,VALID,917.734,VALID,0,VALID,72.4682,VALID,454.584,VALID,26.5855,VALID,314,VALID,0,
2016-05-20, 08:52:04,VALID,917.748,VALID,0,VALID,72.3233,VALID,459.096,VALID,26.6441,VALID,314,VALID,0,
2016-05-20, 08:53:04,VALID,917.752,VALID,0,VALID,72.552,VALID,463.286,VALID,26.6636,VALID,345,VALID,0,
2016-05-20, 08:54:04,VALID,917.745,VALID,0,VALID,70.4251,VALID,460.923,VALID,26.605,VALID,250,VALID,0,
2016-05-20, 08:55:04,VALID,917.774,VALID,0,VALID,72.2624,VALID,356.597,VALID,26.4292,VALID,253,VALID,0,
2016-05-20, 08:56:04,VALID,917.765,VALID,0,VALID,72.674,VALID,500.676,VALID,26.2925,VALID,253,VALID,0,
2016-05-20, 08:57:04,VALID,917.805,VALID,0,VALID,72.6664,VALID,477.146,VALID,26.1753,VALID,266,VALID,0,
2016-05-20, 08:58:04,VALID,917.812,VALID,0,VALID,72.8875,VALID,228.42,VALID,25.8999,VALID,259,VALID,0,
2016-05-20, 08:59:04,VALID,917.783,VALID,0,VALID,73.4059,VALID,485.956,VALID,25.5698,VALID,256,VALID,0,
2016-05-20, 09:00:04,VALID,917.783,VALID,0,VALID,75.6319,VALID,482.411,VALID,25.4136,VALID,239,VALID,0,
2016-05-20, 09:01:04,VALID,917.765,VALID,0,VALID,74.7552,VALID,483.915,VALID,25.4917,VALID,256,VALID,0,
2016-05-20, 09:02:04,VALID,917.764,VALID,0,VALID,72.9942,VALID,486.279,VALID,25.4507,VALID,266,VALID,0,
2016-05-20, 09:03:04,VALID,917.759,VALID,0,VALID,73.2077,VALID,489.609,VALID,25.4331,VALID,266,VALID,0,
2016-05-20, 09:04:04,VALID,917.711,VALID,0,VALID,73.7184,VALID,492.94,VALID,25.4331,VALID,291,VALID,0,
2016-05-20, 09:05:04,VALID,917.709,VALID,0,VALID,74.2673,VALID,495.196,VALID,25.5308,VALID,318,VALID,0,
2016-05-20, 09:06:04,VALID,917.704,VALID,0,VALID,73.0323,VALID,496.808,VALID,25.7066,VALID,323,VALID,0,
2016-05-20, 09:07:04,VALID,917.72,VALID,0,VALID,72.7579,VALID,500.031,VALID,25.6284,VALID,281,VALID,0,
2016-05-20, 09:08:04,VALID,917.682,VALID,0,VALID,72.9256,VALID,503.684,VALID,25.5093,VALID,249,VALID,0,
2016-05-20, 09:09:04,VALID,917.686,VALID,0,VALID,73.261,VALID,507.122,VALID,25.5484,VALID,287,VALID,0,
2016-05-20, 09:10:04,VALID,917.698,VALID,0,VALID,73.3601,VALID,510.453,VALID,25.6265,VALID,287,VALID,0,
2016-05-20, 09:11:04,VALID,917.663,VALID,0,VALID,75.4337,VALID,516.04,VALID,25.6655,VALID,290,VALID,0,
2016-05-20, 09:12:04,VALID,917.654,VALID,0,VALID,76.0512,VALID,518.726,VALID,25.6655,VALID,296,VALID,0,
2016-05-20, 09:13:04,VALID,917.611,VALID,0,VALID,75.7081,VALID,232.073,VALID,25.4293,VALID,292,VALID,0,
2016-05-20, 09:14:04,VALID,917.613,VALID,0,VALID,76.2418,VALID,259.578,VALID,25.2164,VALID,302,VALID,0,
2016-05-20, 09:15:04,VALID,917.575,VALID,0,VALID,76.6077,VALID,547.52,VALID,25.0798,VALID,304,VALID,0,
2016-05-20, 09:16:04,VALID,917.544,VALID,0,VALID,78.3992,VALID,542.685,VALID,25.0602,VALID,302,VALID,0,
2016-05-20, 09:17:04,VALID,917.552,VALID,0,VALID,77.7131,VALID,544.512,VALID,25.2945,VALID,282,VALID,0,
2016-05-20, 09:18:04,VALID,917.525,VALID,0,VALID,76.0207,VALID,431.484,VALID,25.4488,VALID,235,VALID,0,
2016-05-20, 09:19:04,VALID,917.509,VALID,0,VALID,75.1669,VALID,443.625,VALID,25.5855,VALID,227,VALID,0,
2016-05-20, 09:20:04,VALID,917.525,VALID,0,VALID,74.7019,VALID,151.707,VALID,25.6265,VALID,237,VALID,0,
2016-05-20, 09:21:04,VALID,917.484,VALID,0,VALID,75.4261,VALID,143.864,VALID,25.4917,VALID,221,VALID,0,
2016-05-20, 09:22:04,VALID,917.522,VALID,0,VALID,75.8987,VALID,157.724,VALID,25.4117,VALID,241,VALID,0,
2016-05-20, 09:23:04,VALID,917.513,VALID,0,VALID,76.8898,VALID,146.55,VALID,25.236,VALID,251,VALID,0,
2016-05-20, 09:24:04,VALID,917.505,VALID,0,VALID,78.5441,VALID,175.451,VALID,25.0993,VALID,251,VALID,0,
2016-05-20, 09:25:04,VALID,917.504,VALID,0,VALID,78.3687,VALID,602.96,VALID,25.0798,VALID,221,VALID,0,
2016-05-20, 09:26:04,VALID,917.475,VALID,0,VALID,77.9113,VALID,595.224,VALID,25.1579,VALID,221,VALID,0,
2016-05-20, 09:27:04,VALID,917.489,VALID,0,VALID,76.5543,VALID,583.835,VALID,25.3531,VALID,221,VALID,0,
2016-05-20, 09:28:04,VALID,917.483,VALID,0,VALID,76.2723,VALID,579.323,VALID,25.4898,VALID,221,VALID,0,
2016-05-20, 09:29:04,VALID,917.479,VALID,0,VALID,75.3498,VALID,577.066,VALID,25.6655,VALID,194,VALID,0,
2016-05-20, 09:30:04,VALID,917.457,VALID,0,VALID,74.9992,VALID,587.058,VALID,25.8433,VALID,183,VALID,0,
2016-05-20, 09:31:04,VALID,917.534,VALID,0,VALID,74.8086,VALID,589.959,VALID,25.9409,VALID,184,VALID,0,
2016-05-20, 09:32:04,VALID,917.545,VALID,0,VALID,74.496,VALID,592.968,VALID,26.1753,VALID,182,VALID,0,
2016-05-20, 09:33:04,VALID,917.558,VALID,0,VALID,71.9879,VALID,604.894,VALID,26.3491,VALID,222,VALID,0,
2016-05-20, 09:34:04,VALID,917.545,VALID,0,VALID,72.9637,VALID,619.721,VALID,26.3902,VALID,222,VALID,0,
2016-05-20, 09:35:04,VALID,917.552,VALID,0,VALID,71.9117,VALID,280.421,VALID,26.4292,VALID,251,VALID,0,
2016-05-20, 09:36:04,VALID,917.587,VALID,0,VALID,72.5368,VALID,100.135,VALID,26.4077,VALID,251,VALID,0,
2016-05-20, 09:37:04,VALID,917.598,VALID,0,VALID,72.1404,VALID,626.704,VALID,26.4663,VALID,252,VALID,0,
2016-05-20, 09:38:04,VALID,917.555,VALID,0,VALID,70.791,VALID,539.247,VALID,26.564,VALID,252,VALID,0,
2016-05-20, 09:39:04,VALID,917.569,VALID,0,VALID,71.1112,VALID,644.539,VALID,26.7613,VALID,251,VALID,0,
2016-05-20, 09:40:04,VALID,917.561,VALID,0,VALID,70.0363,VALID,640.779,VALID,26.9156,VALID,285,VALID,0,
2016-05-20, 09:41:04,VALID,917.556,VALID,0,VALID,70.2879,VALID,645.077,VALID,27.0132,VALID,60,VALID,0,
2016-05-20, 09:42:04,VALID,917.554,VALID,0,VALID,69.4265,VALID,643.573,VALID,27.113,VALID,75,VALID,0,
2016-05-20, 09:43:04,VALID,917.546,VALID,0,VALID,70.791,VALID,652.92,VALID,27.15,VALID,103,VALID,0,
2016-05-20, 09:44:04,VALID,917.574,VALID,0,VALID,69.03,VALID,670.11,VALID,27.2868,VALID,105,VALID,0,
2016-05-20, 09:45:04,VALID,917.551,VALID,0,VALID,70.1278,VALID,683.541,VALID,27.404,VALID,88,VALID,0,
2016-05-20, 09:46:04,VALID,917.559,VALID,0,VALID,67.3681,VALID,574.38,VALID,27.5603,VALID,71,VALID,0,
2016-05-20, 09:47:04,VALID,917.561,VALID,0,VALID,68.4583,VALID,192.749,VALID,27.6775,VALID,69,VALID,0,
2016-05-20, 09:48:04,VALID,917.536,VALID,0,VALID,68.1076,VALID,286.653,VALID,27.7557,VALID,43,VALID,0.0515625,
2016-05-20, 09:49:04,VALID,917.538,VALID,0,VALID,66.2017,VALID,716.633,VALID,27.5798,VALID,304,VALID,0,
2016-05-20, 09:50:04,VALID,917.535,VALID,0,VALID,68.0542,VALID,647.333,VALID,27.1891,VALID,299,VALID,0,
2016-05-20, 09:51:04,VALID,917.5,VALID,0,VALID,69.2969,VALID,649.804,VALID,26.857,VALID,298,VALID,0,
2016-05-20, 09:52:04,VALID,917.519,VALID,0,VALID,73.1619,VALID,648.407,VALID,26.603,INVALID,360,VALID,0,
2016-05-20, 09:53:04,VALID,917.508,VALID,0,VALID,73.787,VALID,662.912,VALID,26.7007,VALID,343,VALID,0,
2016-05-20, 09:54:04,VALID,917.507,VALID,0,VALID,71.4238,VALID,664.738,VALID,26.8549,VALID,344,VALID,0,
2016-05-20, 09:55:04,VALID,917.494,VALID,0,VALID,73.1086,VALID,670.755,VALID,26.9742,VALID,355,VALID,0.0289063,
2016-05-20, 09:56:04,VALID,917.493,VALID,0,VALID,71.2561,VALID,679.458,VALID,27.0698,VALID,12,VALID,1.45664,
2016-05-20, 09:57:04,VALID,917.49,VALID,0,VALID,71.9269,VALID,276.446,VALID,27.15,VALID,24,VALID,0.449609,
2016-05-20, 09:58:04,VALID,917.484,VALID,0,VALID,71.6982,VALID,369.92,VALID,27.2847,VALID,5,VALID,0.401563,
2016-05-20, 09:59:04,VALID,917.477,VALID,0,VALID,72.5292,VALID,704.062,VALID,27.4214,VALID,11,VALID,1.3707,
2016-05-20, 10:00:04,VALID,917.457,VALID,0,VALID,70.5776,VALID,715.451,VALID,27.48,VALID,10,VALID,1.13789,
2016-05-20, 10:01:04,VALID,917.459,VALID,0,VALID,69.4951,VALID,745.104,VALID,27.48,VALID,41,VALID,1.95625,
2016-05-20, 10:02:04,VALID,917.466,VALID,0,VALID,70.4632,VALID,806.023,VALID,27.7166,VALID,33,VALID,0.0347656,
2016-05-20, 10:03:04,VALID,917.468,VALID,0,VALID,70.0363,VALID,806.561,VALID,27.9706,VALID,25,VALID,1.08047,
2016-05-20, 10:04:04,VALID,917.448,VALID,0,VALID,67.7798,VALID,817.412,VALID,28.3419,VALID,19,VALID,0.554688,
2016-05-20, 10:05:04,VALID,917.46,VALID,0,VALID,64.8829,VALID,814.404,VALID,28.418,VALID,254,VALID,0.141016,
2016-05-20, 10:06:04,VALID,917.462,VALID,0,VALID,65.9197,VALID,825.041,VALID,28.1444,VALID,274,VALID,0,
2016-05-20, 10:07:04,VALID,917.441,VALID,0,VALID,66.2627,VALID,645.077,VALID,28.1053,VALID,249,VALID,0,
2016-05-20, 10:08:04,VALID,917.472,VALID,0,VALID,68.6565,VALID,316.414,VALID,28.2442,VALID,157,VALID,0,
2016-05-20, 10:09:04,VALID,917.432,VALID,0,VALID,66.804,VALID,216.279,VALID,28.2638,VALID,338,VALID,0,
2016-05-20, 10:10:04,VALID,917.425,VALID,0,VALID,66.5372,VALID,205.105,VALID,28.1856,VALID,20,VALID,1.0918,
2016-05-20, 10:11:04,VALID,917.426,VALID,0,VALID,67.1852,VALID,198.981,VALID,28.0271,VALID,34,VALID,0,
2016-05-20, 10:12:04,VALID,917.42,VALID,0,VALID,68.6107,VALID,196.832,VALID,27.7905,VALID,35,VALID,0,
2016-05-20, 10:13:04,VALID,917.443,VALID,0,VALID,66.8878,VALID,218.75,VALID,27.5952,VALID,265,VALID,0.151953,
2016-05-20, 10:14:04,VALID,917.464,VALID,0,VALID,68.1762,VALID,264.413,VALID,27.1284,VALID,291,VALID,0.00585938,
2016-05-20, 10:15:04,VALID,917.452,VALID,0,VALID,71.0884,VALID,373.251,VALID,26.9135,VALID,272,VALID,0,
2016-05-20, 10:16:04,VALID,917.47,VALID,0,VALID,71.9193,VALID,566,VALID,26.8549,VALID,303,VALID,0,
2016-05-20, 10:17:04,VALID,917.496,VALID,0,VALID,71.5686,VALID,649.697,VALID,26.7768,VALID,306,VALID,0.433984,
2016-05-20, 10:18:04,VALID,917.503,VALID,0,VALID,72.3996,VALID,680.317,VALID,26.8354,VALID,11,VALID,0.0878906,
2016-05-20, 10:19:04,VALID,917.531,VALID,0,VALID,70.1507,VALID,822.247,VALID,27.1089,VALID,340,VALID,0,
2016-05-20, 10:20:04,VALID,917.514,VALID,0,VALID,67.9704,VALID,814.404,VALID,27.2456,VALID,40,VALID,0,
2016-05-20, 10:21:04,VALID,917.523,VALID,0,VALID,70.0668,VALID,500.461,VALID,27.2456,VALID,343,VALID,0,
2016-05-20, 10:22:04,VALID,917.539,VALID,0,VALID,70.3489,VALID,177.493,VALID,27.3824,VALID,289,VALID,0,
2016-05-20, 10:23:04,VALID,917.542,VALID,0,VALID,69.335,VALID,184.584,VALID,27.404,VALID,270,VALID,0,
2016-05-20, 10:24:04,VALID,917.552,VALID,0,VALID,70.4175,VALID,196.08,VALID,27.2065,VALID,258,VALID,0,
2016-05-20, 10:25:04,VALID,917.526,VALID,0,VALID,68.1533,VALID,243.784,VALID,27.0112,VALID,281,VALID,0,
2016-05-20, 10:26:04,VALID,917.526,VALID,0,VALID,70.4861,VALID,402.904,VALID,26.8765,VALID,351,VALID,0,
2016-05-20, 10:27:04,VALID,917.5,VALID,0,VALID,70.6538,VALID,290.951,VALID,26.9742,VALID,17,VALID,0,
2016-05-20, 10:28:04,VALID,917.511,VALID,0,VALID,72.0337,VALID,358.746,VALID,26.9937,VALID,35,VALID,0,
2016-05-20, 10:29:04,VALID,917.48,VALID,0,VALID,70.0897,VALID,782.709,VALID,27.0719,VALID,331,VALID,0,
2016-05-20, 10:30:04,VALID,917.454,VALID,0,VALID,69.0834,VALID,753.27,VALID,27.1305,VALID,299,VALID,0,
2016-05-20, 10:31:04,VALID,917.461,VALID,0,VALID,70.3031,VALID,753.377,VALID,27.2281,VALID,349,VALID,0,
2016-05-20, 10:32:04,VALID,917.48,VALID,0,VALID,70.8215,VALID,807.528,VALID,27.4626,VALID,349,VALID,0,
2016-05-20, 10:33:04,VALID,917.467,VALID,0,VALID,65.5309,VALID,804.09,VALID,27.6189,VALID,286,VALID,0,
2016-05-20, 10:34:04,VALID,917.439,VALID,0,VALID,67.5053,VALID,212.089,VALID,27.5017,VALID,294,VALID,0,
2016-05-20, 10:35:04,VALID,917.434,VALID,0,VALID,67.6502,VALID,200.27,VALID,27.5603,VALID,238,VALID,0,
2016-05-20, 10:36:04,VALID,917.424,VALID,0,VALID,68.2296,VALID,217.568,VALID,27.6189,VALID,5,VALID,0,
2016-05-20, 10:37:04,VALID,917.456,VALID,0,VALID,68.9233,VALID,237.767,VALID,27.5408,VALID,28,VALID,0.126172,
2016-05-20, 10:38:04,VALID,917.436,VALID,0,VALID,69.3655,VALID,244.429,VALID,27.5017,VALID,346,VALID,0,
2016-05-20, 10:39:04,VALID,917.453,VALID,0,VALID,70.0592,VALID,193.394,VALID,27.404,VALID,10,VALID,0,
2016-05-20, 10:40:04,VALID,917.481,VALID,0,VALID,69.7543,VALID,285.149,VALID,27.3824,VALID,351,VALID,0,
2016-05-20, 10:41:04,VALID,917.436,VALID,0,VALID,69.3655,VALID,781.205,VALID,27.3824,VALID,21,VALID,0,
2016-05-20, 10:42:04,VALID,917.467,VALID,0,VALID,69.7619,VALID,453.187,VALID,27.4019,VALID,341,VALID,0,
2016-05-20, 10:43:04,VALID,917.437,VALID,0,VALID,70.2193,VALID,416.979,VALID,27.4235,VALID,43,VALID,0.749609,
2016-05-20, 10:44:04,VALID,917.433,VALID,0,VALID,69.2206,VALID,271.289,VALID,27.441,VALID,36,VALID,0,
2016-05-20, 10:45:04,VALID,917.433,VALID,0,VALID,70.0592,VALID,675.912,VALID,27.4431,VALID,33,VALID,0.196875,
2016-05-20, 10:46:04,VALID,917.449,VALID,0,VALID,70.7758,VALID,377.011,VALID,27.5212,VALID,53,VALID,0.303125,
2016-05-20, 10:47:04,VALID,917.448,VALID,0,VALID,68.4811,VALID,801.833,VALID,27.5582,VALID,33,VALID,0,
2016-05-20, 10:48:04,VALID,917.404,VALID,0,VALID,69.3655,VALID,619.613,VALID,27.6971,VALID,27,VALID,0.0519531,
2016-05-20, 10:49:04,VALID,917.409,VALID,0,VALID,67.7264,VALID,649.697,VALID,27.6189,VALID,333,VALID,0.090625,
2016-05-20, 10:50:04,VALID,917.364,VALID,0,VALID,69.4646,VALID,454.046,VALID,27.6189,VALID,3,VALID,0.205078,
2016-05-20, 10:51:04,VALID,917.355,VALID,0,VALID,69.0453,VALID,773.039,VALID,27.7166,VALID,16,VALID,1.15781,
2016-05-20, 10:52:04,VALID,917.351,VALID,0,VALID,69.0605,VALID,796.569,VALID,27.5973,VALID,28,VALID,1.9082,
2016-05-20, 10:53:04,VALID,917.316,VALID,0,VALID,69.4646,VALID,774.866,VALID,27.5603,VALID,21,VALID,1.02617,
2016-05-20, 10:54:04,VALID,917.344,VALID,0,VALID,68.8013,VALID,268.066,VALID,27.6385,VALID,301,VALID,0,
2016-05-20, 10:55:04,VALID,917.336,VALID,0,VALID,70.2193,VALID,790.982,VALID,27.6189,VALID,351,VALID,0.158594,
2016-05-20, 10:56:04,VALID,917.288,VALID,0,VALID,68.8699,VALID,761.865,VALID,27.5798,VALID,26,VALID,1.39258,
2016-05-20, 10:57:04,VALID,917.317,VALID,0,VALID,70.7148,VALID,725.443,VALID,27.4821,VALID,10,VALID,1.68867,
2016-05-20, 10:58:04,VALID,917.289,VALID,0,VALID,71.2713,VALID,729.418,VALID,27.4821,VALID,332,VALID,0.0753906,
2016-05-20, 10:59:04,VALID,917.264,VALID,0,VALID,69.6475,VALID,743.063,VALID,27.5212,VALID,334,VALID,0,